Location: Double Springs (historical)
(38.7916°N, 119.5982°W)
Time: 12:40:13
(UTC+00:00)

Daily predictions for brighter satellites

Satellite Brightness Start Highest point End
(mag) Time Altitude Azimuth Time Altitude Azimuth Time Altitude Azimuth
Cosmos 1825 Rocket 4.5 12:02:02 10° NNW 12:05:44 28° W 12:08:19 16° SW
CZ-2C R/B 3.6 12:02:25 10° N 12:05:47 30° WNW 12:07:44 19° WSW
ARIANE 5 R/B 4.0 12:02:02 10° NNW 12:05:53 21° WNW 12:08:33 15° WSW
MSX 4.2 12:01:13 10° N 12:06:45 49° WNW 12:11:53 12° SW
USA 267 3.8 12:01:32 10° ESE 12:07:56 61° NE 12:14:23 10° NW
Cosmos 1745 Rocket 4.3 12:04:57 10° NNW 12:10:52 46° W 12:16:43 10° SSW
CZ-4B R/B 2.3 12:09:53 10° SSE 12:13:02 50° ENE 12:16:08 10° N
Cosmos 1455 3.7 12:11:16 10° SSE 12:14:52 39° E 12:18:29 10° NNE
Landsat 5 3.9 12:12:21 10° SSW 12:15:59 36° W 12:19:47 10° NNW
Cosmos 1953 Rocket 4.3 12:12:07 10° NNW 12:16:09 34° W 12:20:09 10° SSW
Cosmos 1300 3.6 12:15:09 15° SW 12:17:40 29° WNW 12:21:04 10° NNW
Lacrosse 5 rocket 3.1 12:13:49 10° S 12:17:50 32° SE 12:21:57 10° ENE
SeaSat 1 2.5 12:17:30 10° NNE 12:22:26 70° WNW 12:27:19 10° SW
ADEOS Rocket 4.0 12:18:32 10° SSE 12:26:08 71° ENE 12:33:52 10° N
Cosmos 2058 3.4 12:23:22 10° N 12:27:32 67° E 12:31:42 10° SSE
ERS-2 3.0 12:25:51 10° SSW 12:29:01 28° W 12:32:12 10° NW
TSX-5 3.3 12:40:05 10° SSW 12:43:14 81° ESE 12:46:25 10° NNE
SAR-Lupe-4 3.7 12:42:03 10° S 12:45:31 51° W 12:49:02 10° NNW
COSMO-SKYMED 1 4.4 12:41:55 10° SE 12:45:55 38° ENE 12:49:56 10° N
